Time,TemperatureF,DewpointF,PressureIn,WindDirection,WindDirectionDegrees,WindSpeedMPH,WindSpeedGustMPH,Humidity,HourlyPrecipIn,Conditions,Clouds,dailyrainin,SoftwareType,DateUTC
2013-03-11 00:03:00,28.0,24.0,29.85,WNW,301,5.0,7.0,83,0.00,,,0.00,,2013-03-11 05:03:00,
2013-03-11 00:12:00,28.0,24.0,29.85,WNW,301,5.0,7.0,83,0.00,,,0.00,,2013-03-11 05:12:00,
2013-03-11 00:22:00,28.0,24.0,29.85,WNW,301,5.0,7.0,83,0.00,,,0.00,,2013-03-11 05:22:00,
2013-03-11 00:32:00,28.0,24.0,29.85,WNW,294,5.0,5.0,83,0.00,,,0.00,,2013-03-11 05:32:00,
2013-03-11 00:42:00,28.0,24.0,29.85,WNW,294,5.0,5.0,83,0.00,,,0.00,,2013-03-11 05:42:00,
2013-03-11 00:52:00,28.0,24.0,29.85,WNW,294,5.0,5.0,83,0.00,,,0.00,,2013-03-11 05:52:00,
2013-03-11 01:02:00,27.0,22.0,29.85,WNW,296,6.0,6.0,82,0.00,,,0.00,,2013-03-11 06:02:00,
2013-03-11 01:12:00,27.0,22.0,29.85,WNW,296,6.0,6.0,82,0.00,,,0.00,,2013-03-11 06:12:00,
2013-03-11 01:22:00,27.0,22.0,29.85,WNW,296,6.0,6.0,82,0.00,,,0.00,,2013-03-11 06:22:00,
2013-03-11 01:32:00,27.0,22.0,29.85,WNW,294,5.0,5.0,82,0.00,,,0.00,,2013-03-11 06:32:00,
2013-03-11 01:42:00,27.0,22.0,29.85,WNW,294,5.0,5.0,82,0.00,,,0.00,,2013-03-11 06:42:00,
2013-03-11 01:53:00,27.0,22.0,29.85,WNW,294,5.0,5.0,82,0.00,,,0.00,,2013-03-11 06:53:00,
2013-03-11 02:02:00,27.0,22.0,29.84,NW,313,6.0,6.0,82,0.00,,,0.00,,2013-03-11 07:02:00,
2013-03-11 02:12:00,27.0,22.0,29.84,NW,313,6.0,6.0,82,0.00,,,0.00,,2013-03-11 07:12:00,
2013-03-11 02:22:00,27.0,22.0,29.84,NW,313,6.0,6.0,82,0.00,,,0.00,,2013-03-11 07:22:00,
2013-03-11 02:32:00,27.0,22.0,29.84,NW,319,4.0,7.0,82,0.00,,,0.00,,2013-03-11 07:32:00,
2013-03-11 02:42:00,27.0,22.0,29.84,NW,319,4.0,7.0,82,0.00,,,0.00,,2013-03-11 07:42:00,
2013-03-11 02:52:00,27.0,22.0,29.84,NW,319,4.0,7.0,82,0.00,,,0.00,,2013-03-11 07:52:00,
2013-03-11 03:02:00,27.0,22.0,29.83,NW,306,4.0,4.0,82,0.00,,,0.00,,2013-03-11 08:02:00,
2013-03-11 03:12:00,27.0,22.0,29.83,NW,306,4.0,4.0,82,0.00,,,0.00,,2013-03-11 08:12:00,
2013-03-11 03:22:00,27.0,22.0,29.83,NW,306,4.0,4.0,82,0.00,,,0.00,,2013-03-11 08:22:00,
2013-03-11 03:32:00,27.0,22.0,29.83,West,280,4.0,6.0,82,0.00,,,0.00,,2013-03-11 08:32:00,
2013-03-11 03:42:00,27.0,22.0,29.83,West,280,4.0,6.0,82,0.00,,,0.00,,2013-03-11 08:42:00,
2013-03-11 03:52:00,27.0,22.0,29.83,West,280,4.0,6.0,82,0.00,,,0.00,,2013-03-11 08:52:00,
2013-03-11 04:02:00,27.0,22.0,29.82,WNW,293,6.0,6.0,82,0.00,,,0.00,,2013-03-11 09:02:00,
2013-03-11 04:12:00,27.0,22.0,29.82,WNW,293,6.0,6.0,82,0.00,,,0.00,,2013-03-11 09:12:00,
2013-03-11 04:23:00,27.0,22.0,29.82,WNW,293,6.0,6.0,82,0.00,,,0.00,,2013-03-11 09:23:00,
2013-03-11 04:32:00,26.0,21.0,29.81,WNW,297,4.0,4.0,82,0.00,,,0.00,,2013-03-11 09:32:00,
2013-03-11 04:42:00,26.0,21.0,29.81,WNW,297,4.0,4.0,82,0.00,,,0.00,,2013-03-11 09:42:00,
2013-03-11 04:52:00,26.0,21.0,29.81,WNW,297,4.0,4.0,82,0.00,,,0.00,,2013-03-11 09:52:00,
2013-03-11 05:02:00,26.0,21.0,29.81,WNW,300,3.0,6.0,81,0.00,,,0.00,,2013-03-11 10:02:00,
2013-03-11 05:12:00,26.0,21.0,29.81,WNW,300,3.0,6.0,81,0.00,,,0.00,,2013-03-11 10:12:00,
2013-03-11 05:22:00,26.0,21.0,29.81,WNW,300,3.0,6.0,81,0.00,,,0.00,,2013-03-11 10:22:00,
2013-03-11 05:32:00,26.0,21.0,29.82,WNW,289,4.0,4.0,81,0.00,,,0.00,,2013-03-11 10:32:00,
2013-03-11 05:42:00,26.0,21.0,29.82,WNW,289,4.0,4.0,81,0.00,,,0.00,,2013-03-11 10:42:00,
2013-03-11 05:52:00,26.0,21.0,29.82,WNW,289,4.0,4.0,81,0.00,,,0.00,,2013-03-11 10:52:00,
2013-03-11 06:02:00,26.0,21.0,29.82,West,281,3.0,4.0,81,0.00,,,0.00,,2013-03-11 11:02:00,
2013-03-11 06:12:00,26.0,21.0,29.82,West,281,3.0,4.0,81,0.00,,,0.00,,2013-03-11 11:12:00,
2013-03-11 06:22:00,26.0,21.0,29.82,West,281,3.0,4.0,81,0.00,,,0.00,,2013-03-11 11:22:00,
2013-03-11 06:32:00,26.0,21.0,29.83,West,278,1.0,4.0,81,0.00,,,0.00,,2013-03-11 11:32:00,
2013-03-11 06:53:00,26.0,21.0,29.83,West,278,1.0,4.0,81,0.00,,,0.00,,2013-03-11 11:53:00,
2013-03-11 07:02:00,26.0,21.0,29.85,WNW,302,4.0,5.0,80,0.00,,,0.00,,2013-03-11 12:02:00,
2013-03-11 07:12:00,26.0,21.0,29.85,WNW,302,4.0,5.0,80,0.00,,,0.00,,2013-03-11 12:12:00,
2013-03-11 07:22:00,26.0,21.0,29.85,WNW,302,4.0,5.0,80,0.00,,,0.00,,2013-03-11 12:22:00,
2013-03-11 07:32:00,26.0,21.0,29.86,West,270,3.0,4.0,81,0.00,,,0.00,,2013-03-11 12:32:00,
2013-03-11 07:42:00,26.0,21.0,29.86,West,270,3.0,4.0,81,0.00,,,0.00,,2013-03-11 12:42:00,
2013-03-11 07:53:00,26.0,21.0,29.86,West,270,3.0,4.0,81,0.00,,,0.00,,2013-03-11 12:53:00,
2013-03-11 08:02:00,26.0,21.0,29.86,West,276,2.0,3.0,80,0.00,,,0.00,,2013-03-11 13:02:00,
2013-03-11 08:12:00,26.0,21.0,29.86,West,276,2.0,3.0,80,0.00,,,0.00,,2013-03-11 13:12:00,
2013-03-11 08:22:00,26.0,21.0,29.86,West,276,2.0,3.0,80,0.00,,,0.00,,2013-03-11 13:22:00,
2013-03-11 08:32:00,26.0,21.0,29.86,West,279,4.0,5.0,80,0.00,,,0.00,,2013-03-11 13:32:00,
2013-03-11 08:42:00,26.0,21.0,29.86,West,279,4.0,5.0,80,0.00,,,0.00,,2013-03-11 13:42:00,
2013-03-11 08:53:00,26.0,21.0,29.86,West,279,4.0,5.0,80,0.00,,,0.00,,2013-03-11 13:53:00,
2013-03-11 09:02:00,26.0,21.0,29.87,West,266,6.0,6.0,81,0.00,,,0.00,,2013-03-11 14:02:00,
2013-03-11 09:12:00,26.0,21.0,29.87,West,266,6.0,6.0,81,0.00,,,0.00,,2013-03-11 14:12:00,
2013-03-11 09:22:00,26.0,21.0,29.87,West,266,6.0,6.0,81,0.00,,,0.00,,2013-03-11 14:22:00,
2013-03-11 09:32:00,26.0,21.0,29.87,WNW,290,3.0,5.0,81,0.00,,,0.00,,2013-03-11 14:32:00,
2013-03-11 09:42:00,26.0,21.0,29.87,WNW,290,3.0,5.0,81,0.00,,,0.00,,2013-03-11 14:42:00,
2013-03-11 09:53:00,26.0,21.0,29.87,WNW,290,3.0,5.0,81,0.00,,,0.00,,2013-03-11 14:53:00,
2013-03-11 10:02:00,26.0,21.0,29.88,West,260,4.0,4.0,80,0.00,,,0.00,,2013-03-11 15:02:00,
2013-03-11 10:12:00,26.0,21.0,29.88,West,260,4.0,4.0,80,0.00,,,0.00,,2013-03-11 15:12:00,
2013-03-11 10:22:00,26.0,21.0,29.88,West,260,4.0,4.0,80,0.00,,,0.00,,2013-03-11 15:22:00,
2013-03-11 10:32:00,26.0,20.0,29.88,WNW,284,4.0,4.0,79,0.00,,,0.00,,2013-03-11 15:32:00,
2013-03-11 10:42:00,26.0,20.0,29.88,WNW,284,4.0,4.0,79,0.00,,,0.00,,2013-03-11 15:42:00,
2013-03-11 10:53:00,26.0,20.0,29.88,WNW,284,4.0,4.0,79,0.00,,,0.00,,2013-03-11 15:53:00,
2013-03-11 11:02:00,27.0,21.0,29.88,WNW,291,5.0,5.0,77,0.00,,,0.00,,2013-03-11 16:02:00,
2013-03-11 11:12:00,27.0,21.0,29.88,WNW,291,5.0,5.0,77,0.00,,,0.00,,2013-03-11 16:12:00,
2013-03-11 11:22:00,27.0,21.0,29.88,WNW,291,5.0,5.0,77,0.00,,,0.00,,2013-03-11 16:22:00,
2013-03-11 11:32:00,27.0,21.0,29.89,WNW,290,4.0,4.0,77,0.00,,,0.00,,2013-03-11 16:32:00,
2013-03-11 11:42:00,27.0,21.0,29.89,WNW,290,4.0,4.0,77,0.00,,,0.00,,2013-03-11 16:42:00,
2013-03-11 11:52:00,27.0,21.0,29.89,WNW,290,4.0,4.0,77,0.00,,,0.00,,2013-03-11 16:52:00,
2013-03-11 12:02:00,27.0,20.0,29.90,WNW,284,4.0,4.0,76,0.00,,,0.00,,2013-03-11 17:02:00,
2013-03-11 12:14:00,27.0,20.0,29.90,WNW,284,4.0,4.0,76,0.00,,,0.00,,2013-03-11 17:14:00,
2013-03-11 12:25:00,27.0,20.0,29.90,WNW,284,4.0,4.0,76,0.00,,,0.00,,2013-03-11 17:25:00,
2013-03-11 12:35:00,27.0,20.0,29.89,NW,309,3.0,4.0,76,0.00,,,0.00,,2013-03-11 17:35:00,
2013-03-11 12:42:00,27.0,20.0,29.89,NW,309,3.0,4.0,76,0.00,,,0.00,,2013-03-11 17:42:00,
2013-03-11 12:53:00,27.0,20.0,29.89,NW,309,3.0,4.0,76,0.00,,,0.00,,2013-03-11 17:53:00,
2013-03-11 13:02:00,28.0,22.0,29.89,West,261,3.0,4.0,77,0.00,,,0.00,,2013-03-11 18:02:00,
2013-03-11 13:12:00,28.0,22.0,29.89,West,261,3.0,4.0,77,0.00,,,0.00,,2013-03-11 18:12:00,
2013-03-11 13:23:00,28.0,22.0,29.89,West,261,3.0,4.0,77,0.00,,,0.00,,2013-03-11 18:23:00,
2013-03-11 13:32:00,28.0,22.0,29.89,WSW,254,2.0,3.0,77,0.00,,,0.00,,2013-03-11 18:32:00,
2013-03-11 13:42:00,28.0,22.0,29.89,WSW,254,2.0,3.0,77,0.00,,,0.00,,2013-03-11 18:42:00,
2013-03-11 13:53:00,28.0,22.0,29.89,WSW,254,2.0,3.0,77,0.00,,,0.00,,2013-03-11 18:53:00,
2013-03-11 14:02:00,29.0,22.0,29.90,West,264,7.0,7.0,75,0.00,,,0.00,,2013-03-11 19:02:00,
2013-03-11 14:12:00,29.0,22.0,29.90,West,264,7.0,7.0,75,0.00,,,0.00,,2013-03-11 19:12:00,
2013-03-11 14:22:00,29.0,22.0,29.90,West,264,7.0,7.0,75,0.00,,,0.00,,2013-03-11 19:22:00,
2013-03-11 14:32:00,29.0,21.0,29.89,NW,311,4.0,4.0,73,0.00,,,0.00,,2013-03-11 19:32:00,
2013-03-11 14:42:00,29.0,21.0,29.89,NW,311,4.0,4.0,73,0.00,,,0.00,,2013-03-11 19:42:00,
2013-03-11 14:53:00,29.0,21.0,29.89,NW,311,4.0,4.0,73,0.00,,,0.00,,2013-03-11 19:53:00,
2013-03-11 15:02:00,31.0,23.0,29.89,NW,307,4.0,6.0,72,0.00,,,0.00,,2013-03-11 20:02:00,
2013-03-11 15:12:00,31.0,23.0,29.89,NW,307,4.0,6.0,72,0.00,,,0.00,,2013-03-11 20:12:00,
2013-03-11 15:22:00,31.0,23.0,29.89,NW,307,4.0,6.0,72,0.00,,,0.00,,2013-03-11 20:22:00,
2013-03-11 15:32:00,31.0,21.0,29.88,WSW,256,4.0,5.0,67,0.00,,,0.00,,2013-03-11 20:32:00,
2013-03-11 15:43:00,31.0,21.0,29.88,WSW,256,4.0,5.0,67,0.00,,,0.00,,2013-03-11 20:43:00,
2013-03-11 15:53:00,31.0,21.0,29.88,WSW,256,4.0,5.0,67,0.00,,,0.00,,2013-03-11 20:53:00,
2013-03-11 16:03:00,32.0,22.0,29.88,West,272,4.0,6.0,66,0.00,,,0.00,,2013-03-11 21:03:00,
2013-03-11 16:12:00,32.0,22.0,29.88,West,272,4.0,6.0,66,0.00,,,0.00,,2013-03-11 21:12:00,
2013-03-11 16:22:00,32.0,22.0,29.88,West,272,4.0,6.0,66,0.00,,,0.00,,2013-03-11 21:22:00,
2013-03-11 16:32:00,33.0,22.0,29.87,West,268,3.0,4.0,63,0.00,,,0.00,,2013-03-11 21:32:00,
2013-03-11 16:43:00,33.0,22.0,29.87,West,268,3.0,4.0,63,0.00,,,0.00,,2013-03-11 21:43:00,
2013-03-11 16:53:00,33.0,22.0,29.87,West,268,3.0,4.0,63,0.00,,,0.00,,2013-03-11 21:53:00,
2013-03-11 17:02:00,34.0,21.0,29.87,West,265,4.0,5.0,59,0.00,,,0.00,,2013-03-11 22:02:00,
2013-03-11 17:12:00,34.0,21.0,29.87,West,265,4.0,5.0,59,0.00,,,0.00,,2013-03-11 22:12:00,
2013-03-11 17:22:00,34.0,21.0,29.87,West,265,4.0,5.0,59,0.00,,,0.00,,2013-03-11 22:22:00,
2013-03-11 17:32:00,35.0,21.0,29.87,West,272,4.0,5.0,57,0.00,,,0.00,,2013-03-11 22:32:00,
2013-03-11 17:43:00,35.0,21.0,29.87,West,272,4.0,5.0,57,0.00,,,0.00,,2013-03-11 22:43:00,
2013-03-11 17:53:00,35.0,21.0,29.87,West,272,4.0,5.0,57,0.00,,,0.00,,2013-03-11 22:53:00,
2013-03-11 18:03:00,36.0,21.0,29.88,West,268,4.0,5.0,54,0.00,,,0.00,,2013-03-11 23:03:00,
2013-03-11 18:12:00,36.0,21.0,29.88,West,268,4.0,5.0,54,0.00,,,0.00,,2013-03-11 23:12:00,
2013-03-11 18:22:00,36.0,21.0,29.88,West,268,4.0,5.0,54,0.00,,,0.00,,2013-03-11 23:22:00,
2013-03-11 18:32:00,36.0,20.0,29.88,WSW,257,2.0,6.0,51,0.00,,,0.00,,2013-03-11 23:32:00,
2013-03-11 18:43:00,36.0,20.0,29.88,WSW,257,2.0,6.0,51,0.00,,,0.00,,2013-03-11 23:43:00,
2013-03-11 18:53:00,36.0,20.0,29.88,WSW,257,2.0,6.0,51,0.00,,,0.00,,2013-03-11 23:53:00,
2013-03-11 19:02:00,35.0,19.0,29.89,West,262,3.0,3.0,52,0.00,,,0.00,,2013-03-12 00:02:00,
2013-03-11 19:12:00,35.0,19.0,29.89,West,262,3.0,3.0,52,0.00,,,0.00,,2013-03-12 00:12:00,
2013-03-11 19:22:00,35.0,19.0,29.89,West,262,3.0,3.0,52,0.00,,,0.00,,2013-03-12 00:22:00,
2013-03-11 19:33:00,35.0,20.0,29.89,West,261,0.0,1.0,53,0.00,,,0.00,,2013-03-12 00:33:00,
2013-03-11 19:42:00,35.0,20.0,29.89,West,261,0.0,1.0,53,0.00,,,0.00,,2013-03-12 00:42:00,
2013-03-11 19:53:00,35.0,20.0,29.89,West,261,0.0,1.0,53,0.00,,,0.00,,2013-03-12 00:53:00,
2013-03-11 20:02:00,34.0,20.0,29.92,West,262,1.0,1.0,56,0.00,,,0.00,,2013-03-12 01:02:00,
2013-03-11 20:12:00,34.0,20.0,29.92,West,262,1.0,1.0,56,0.00,,,0.00,,2013-03-12 01:12:00,
2013-03-11 20:22:00,34.0,20.0,29.92,West,262,1.0,1.0,56,0.00,,,0.00,,2013-03-12 01:22:00,
2013-03-11 20:32:00,33.0,20.0,29.92,West,261,1.0,1.0,58,0.00,,,0.00,,2013-03-12 01:32:00,
2013-03-11 20:42:00,33.0,20.0,29.92,West,261,1.0,1.0,58,0.00,,,0.00,,2013-03-12 01:42:00,
2013-03-11 20:52:00,33.0,20.0,29.92,West,261,1.0,1.0,58,0.00,,,0.00,,2013-03-12 01:52:00,
2013-03-11 21:02:00,32.0,19.0,29.92,North,360,0.0,0.0,59,0.00,,,0.00,,2013-03-12 02:02:00,
2013-03-11 21:12:00,32.0,19.0,29.92,North,360,0.0,0.0,59,0.00,,,0.00,,2013-03-12 02:12:00,
2013-03-11 21:22:00,32.0,19.0,29.92,North,360,0.0,0.0,59,0.00,,,0.00,,2013-03-12 02:22:00,
2013-03-11 21:32:00,31.0,20.0,29.92,North,360,0.0,1.0,62,0.00,,,0.00,,2013-03-12 02:32:00,
2013-03-11 21:42:00,31.0,20.0,29.92,North,360,0.0,1.0,62,0.00,,,0.00,,2013-03-12 02:42:00,
2013-03-11 21:52:00,31.0,20.0,29.92,North,360,0.0,1.0,62,0.00,,,0.00,,2013-03-12 02:52:00,
2013-03-11 22:02:00,31.0,20.0,29.93,North,360,0.0,0.0,64,0.00,,,0.00,,2013-03-12 03:02:00,
2013-03-11 22:12:00,31.0,20.0,29.93,North,360,0.0,0.0,64,0.00,,,0.00,,2013-03-12 03:12:00,
2013-03-11 22:22:00,31.0,20.0,29.93,North,360,0.0,0.0,64,0.00,,,0.00,,2013-03-12 03:22:00,
2013-03-11 22:32:00,31.0,20.0,29.93,North,360,0.0,0.0,64,0.00,,,0.00,,2013-03-12 03:32:00,
2013-03-11 22:42:00,31.0,20.0,29.93,North,360,0.0,0.0,64,0.00,,,0.00,,2013-03-12 03:42:00,
2013-03-11 22:53:00,31.0,20.0,29.93,North,360,0.0,0.0,64,0.00,,,0.00,,2013-03-12 03:53:00,
2013-03-11 23:02:00,30.0,20.0,29.93,North,360,0.0,0.0,65,0.00,,,0.00,,2013-03-12 04:02:00,
2013-03-11 23:12:00,30.0,20.0,29.93,North,360,0.0,0.0,65,0.00,,,0.00,,2013-03-12 04:12:00,
2013-03-11 23:22:00,30.0,20.0,29.93,North,360,0.0,0.0,65,0.00,,,0.00,,2013-03-12 04:22:00,
2013-03-11 23:32:00,30.0,20.0,29.94,SW,219,1.0,1.0,65,0.00,,,0.00,,2013-03-12 04:32:00,
2013-03-11 23:42:00,30.0,20.0,29.94,SW,219,1.0,1.0,65,0.00,,,0.00,,2013-03-12 04:42:00,
2013-03-11 23:52:00,30.0,20.0,29.94,SW,219,1.0,1.0,65,0.00,,,0.00,,2013-03-12 04:52:00,